Weather History for Gonzales, LA

Change the Weather History Date:

Wednesday, January 30, 2013

  Actual Average (KBTR) Record (KBTR)
Temperature  
Mean Temperature 60 °F 52 °F  
Max Temperature 74 °F 63 °F 83 °F (2002)
Min Temperature 43 °F 42 °F 15 °F (1966)
Degree Days  
Heating Degree Days 6 13  
Month to date heating degree days 413  
Since 1 July heating degree days 1029  
Cooling Degree Days 0 0  
Month to date cooling degree days 3  
Year to date cooling degree days 3  
Growing Degree Days 10 (Base 50)    
Moisture  
Dew Point 46 °F    
Average Humidity 64    
Maximum Humidity 96    
Minimum Humidity 34    
Precipitation  
Precipitation 0.63 in 0.19 in 1.90 in (1922)
Month to date precipitation 5.53  
Year to date precipitation 5.53  
Snow  
Snow 0.00 in - - ()
Month to date snowfall  
Since 1 July snowfall  
Snow Depth -    
Sea Level Pressure  
Sea Level Pressure 29.89 in    
Wind  
Wind Speed 13 mph (West)    
Max Wind Speed 21 mph    
Max Gust Speed 29 mph    
Visibility 10 miles    
Events Rain , Thunderstorm    
T = Trace of Precipitation, MM = Missing Value Source: NWS Daily Summary

Daily Weather History Graph

Daily Weather History Graph

Search for Another Location

Airport:

Trip Planner

Search our weather history database for the weather conditions in past years. The results will help you decide how hot, cold, wet, or windy it might be!

Date:

Astronomy

Jan. 30, 2013 Rise Set
Actual Time 6:55 AM CST 5:39 PM CST
Civil Twilight 6:30 AM CST 6:04 PM CST
Nautical Twilight 6:01 AM CST 6:33 PM CST
Astronomical Twilight 5:33 AM CST 7:01 PM CST
Moon 9:16 PM CST (1/30) 8:42 AM CST (1/30)
Length of Visible Light 11h 34m
Length of Day
10h 43m
Waning Gibbous, 87% of the Moon is Illuminated
Jan 30
Waning Gibbous
Feb 3
Last Quarter
Feb 10
New
Feb 17
First Quarter
Feb 25
Full

Hourly Weather History & Observations

Time (CST) Temp. Windchill Dew Point Humidity Pressure Visibility Wind Dir Wind Speed Gust Speed Precip Events Conditions
12:35 AM 73.6 °F - 68.4 °F 84% 29.76 in 10.0 mi South 19.6 mph 26.5 mph N/A   Overcast
12:55 AM 73.6 °F - 68.4 °F 84% 29.74 in 10.0 mi South 20.7 mph 26.5 mph N/A   Overcast
1:15 AM 73.8 °F - 68.5 °F 84% 29.75 in 10.0 mi South 15.0 mph 21.9 mph N/A   Overcast
1:35 AM 74.1 °F - 68.5 °F 83% 29.76 in 10.0 mi SSW 16.1 mph 27.6 mph N/A   Overcast
1:55 AM 73.8 °F - 68.7 °F 84% 29.75 in 10.0 mi South 16.1 mph 21.9 mph N/A   Overcast
2:15 AM 74.3 °F - 68.5 °F 82% 29.74 in 10.0 mi South 16.1 mph 27.6 mph N/A   Overcast
2:35 AM 73.9 °F - 68.5 °F 83% 29.74 in 10.0 mi South 15.0 mph 20.7 mph N/A   Overcast
2:55 AM 73.4 °F - 68.9 °F 86% 29.73 in 10.0 mi South 13.8 mph 20.7 mph N/A Rain Light Rain
3:15 AM 72.9 °F - 69.1 °F 88% 29.73 in 10.0 mi South 15.0 mph 20.7 mph N/A   Overcast
3:35 AM 73.0 °F - 69.4 °F 88% 29.71 in 10.0 mi South 13.8 mph 21.9 mph N/A   Overcast
3:55 AM 73.0 °F - 69.4 °F 88% 29.71 in 10.0 mi SSW 12.7 mph 20.7 mph N/A Rain Light Rain
4:15 AM 72.7 °F - 69.8 °F 91% 29.69 in 10.0 mi South 18.4 mph 24.2 mph N/A Rain Light Rain
4:35 AM 72.9 °F - 69.8 °F 90% 29.68 in 10.0 mi South 15.0 mph 24.2 mph N/A   Overcast
4:55 AM 72.9 °F - 69.8 °F 90% 29.67 in 10.0 mi South 17.3 mph 23.0 mph N/A   Overcast
5:15 AM 73.0 °F - 69.4 °F 88% 29.67 in 10.0 mi South 17.3 mph 26.5 mph N/A Rain Light Rain
6:15 AM 58.3 °F - 57.0 °F 96% 29.74 in 2.0 mi West 8.1 mph 21.9 mph 0.31 in Rain , Thunderstorm Heavy Thunderstorms and Rain
6:35 AM 56.3 °F - 54.5 °F 94% 29.75 in 7.0 mi NW 6.9 mph - 0.48 in Rain , Thunderstorm Rain
6:55 AM 55.4 °F - 53.1 °F 92% 29.73 in 10.0 mi NW 9.2 mph - 0.54 in Rain Rain
7:15 AM 55.0 °F - 52.9 °F 92% 29.75 in 7.0 mi Calm Calm - 0.02 in Rain Rain
7:35 AM 55.0 °F - 52.3 °F 91% 29.75 in 7.0 mi Calm Calm - 0.05 in Rain Light Rain
7:55 AM 54.9 °F - 53.2 °F 94% 29.76 in 7.0 mi Calm Calm - 0.08 in Rain Light Rain
8:15 AM 55.4 °F - 53.6 °F 94% 29.78 in 10.0 mi SW 3.5 mph - N/A Rain Light Rain
8:35 AM 55.2 °F - 53.4 °F 94% 29.78 in 10.0 mi West 5.8 mph - N/A Rain Light Rain
8:55 AM 55.6 °F - 53.4 °F 92% 29.79 in 10.0 mi West 4.6 mph - 0.01 in   Light Drizzle
9:15 AM 56.7 °F - 53.6 °F 89% 29.80 in 10.0 mi West 4.6 mph - N/A   Overcast
9:35 AM 58.1 °F - 52.0 °F 80% 29.80 in 10.0 mi WNW 5.8 mph - N/A   Overcast
9:55 AM 58.6 °F - 52.2 °F 79% 29.80 in 10.0 mi West 5.8 mph - N/A   Overcast
10:15 AM 59.0 °F - 50.9 °F 74% 29.82 in 10.0 mi West 9.2 mph 18.4 mph N/A   Overcast
10:35 AM 59.2 °F - 50.0 °F 72% 29.82 in 10.0 mi West 9.2 mph - N/A   Overcast
10:55 AM 59.4 °F - 48.0 °F 66% 29.83 in 10.0 mi West 8.1 mph - N/A   Overcast
11:15 AM 59.5 °F - 45.3 °F 59% 29.83 in 10.0 mi WNW 8.1 mph 17.3 mph N/A   Overcast
11:35 AM 59.4 °F - 43.3 °F 55% 29.84 in 10.0 mi West 9.2 mph 18.4 mph N/A   Overcast
11:55 AM 59.4 °F - 43.3 °F 55% 29.85 in 10.0 mi West 6.9 mph - N/A   Overcast
12:15 PM 59.2 °F - 39.6 °F 48% 29.85 in 10.0 mi West 8.1 mph - N/A   Overcast
12:35 PM 59.5 °F - 33.8 °F 38% 29.85 in 10.0 mi West 13.8 mph 21.9 mph N/A   Overcast
12:55 PM 59.9 °F - 34.3 °F 38% 29.85 in 10.0 mi West 12.7 mph 23.0 mph N/A   Overcast
1:15 PM 59.2 °F - 30.9 °F 34% 29.85 in 10.0 mi West 15.0 mph 20.7 mph N/A   Overcast
1:35 PM 59.0 °F - 32.0 °F 36% 29.85 in 10.0 mi West 13.8 mph 21.9 mph N/A   Overcast
1:55 PM 59.7 °F - 33.1 °F 37% 29.85 in 10.0 mi West 13.8 mph 20.7 mph N/A   Overcast
2:15 PM 60.4 °F - 33.6 °F 37% 29.86 in 10.0 mi West 13.8 mph 21.9 mph N/A   Overcast
2:35 PM 59.9 °F - 31.8 °F 35% 29.86 in 10.0 mi WNW 16.1 mph 28.8 mph N/A   Overcast
2:55 PM 60.8 °F - 32.7 °F 35% 29.87 in 10.0 mi WNW 15.0 mph 23.0 mph N/A   Scattered Clouds
3:15 PM 60.4 °F - 32.9 °F 36% 29.87 in 10.0 mi West 11.5 mph 21.9 mph N/A   Clear
3:35 PM 60.8 °F - 34.3 °F 37% 29.89 in 10.0 mi WNW 12.7 mph 19.6 mph N/A   Clear
3:55 PM 60.1 °F - 34.9 °F 39% 29.89 in 10.0 mi WNW 11.5 mph 21.9 mph N/A   Clear
4:15 PM 59.9 °F - 34.7 °F 39% 29.91 in 10.0 mi WNW 17.3 mph 25.3 mph N/A   Clear
4:35 PM 59.2 °F - 34.9 °F 40% 29.92 in 10.0 mi NW 13.8 mph 28.8 mph N/A   Clear
4:55 PM 57.9 °F - 34.0 °F 41% 29.94 in 10.0 mi NW 13.8 mph 27.6 mph N/A   Clear
5:15 PM 56.5 °F - 32.5 °F 40% 29.95 in 10.0 mi NW 17.3 mph 24.2 mph N/A   Clear
5:35 PM 54.9 °F - 32.0 °F 42% 29.97 in 10.0 mi NW 18.4 mph 27.6 mph N/A   Clear
5:55 PM 54.0 °F - 33.1 °F 45% 29.98 in 10.0 mi NNW 10.4 mph 18.4 mph N/A   Clear
6:15 PM 53.4 °F - 33.8 °F 47% 30.00 in 10.0 mi NW 11.5 mph 18.4 mph N/A   Clear
6:35 PM 52.9 °F - 34.3 °F 49% 30.02 in 10.0 mi NW 15.0 mph 25.3 mph N/A   Clear
6:55 PM 52.2 °F - 33.6 °F 49% 30.05 in 10.0 mi NW 12.7 mph 25.3 mph N/A   Clear
7:15 PM 51.1 °F - 32.4 °F 49% 30.07 in 10.0 mi NW 18.4 mph 26.5 mph N/A   Clear
7:35 PM 50.4 °F - 32.0 °F 49% 30.08 in 10.0 mi NW 13.8 mph 23.0 mph N/A   Clear
7:55 PM 49.5 °F - 32.0 °F 51% 30.10 in 10.0 mi NW 9.2 mph - N/A   Clear
8:15 PM 49.5 °F - 31.1 °F 49% 30.11 in 10.0 mi NW 12.7 mph 20.7 mph N/A   Clear
8:35 PM 48.7 °F - 31.3 °F 51% 30.11 in 10.0 mi NW 11.5 mph 18.4 mph N/A   Clear
8:55 PM 48.4 °F - 31.1 °F 51% 30.13 in 10.0 mi NW 6.9 mph - N/A   Clear
9:15 PM 48.0 °F - 31.3 °F 52% 30.13 in 10.0 mi NW 5.8 mph - N/A   Clear
9:35 PM 47.5 °F - 31.6 °F 54% 30.14 in 10.0 mi NNW 5.8 mph - N/A   Clear
9:55 PM 46.9 °F - 31.6 °F 55% 30.16 in 10.0 mi NW 4.6 mph - N/A   Clear
10:15 PM 46.6 °F - 32.0 °F 57% 30.17 in 10.0 mi NW 4.6 mph - N/A   Clear
10:35 PM 46.2 °F 43.3 °F 32.0 °F 58% 30.17 in 10.0 mi NW 5.8 mph - N/A   Clear
10:55 PM 45.9 °F 43.6 °F 32.0 °F 58% 30.18 in 10.0 mi NW 4.6 mph - N/A   Clear
11:15 PM 45.5 °F 43.2 °F 32.0 °F 59% 30.18 in 10.0 mi NW 4.6 mph - N/A   Clear
11:35 PM 45.3 °F 44.0 °F 32.0 °F 60% 30.20 in 10.0 mi NW 3.5 mph - N/A   Clear
11:55 PM 43.9 °F - 32.2 °F 63% 30.20 in 10.0 mi Calm Calm - N/A   Clear